| time (UTC) | temp F | wind direction | speed knots | gust knots | rain 1hr in | rain 24hr in | rain mn in | humidity % | barometer mb |
| 20260510061048 | 60 | 0 | 0.0 | 0.0 | 0.00 | 0.00 | 0.00 | 85 | 1013.2 |
| 20260510060548 | 60 | 0 | 0.0 | 0.0 | 0.00 | 0.00 | 0.00 | 86 | 1013.2 |
| 20260510060052 | 60 | 0 | 0.0 | 0.0 | 0.00 | 0.00 | 0.00 | 86 | 1013.0 |
| 20260510055547 | 60 | 0 | 0.0 | 0.0 | 0.00 | 0.00 | 0.00 | 85 | 1013.1 |
| 20260510055048 | 60 | 0 | 0.0 | 0.0 | 0.00 | 0.00 | 0.00 | 85 | 1013.0 |
| 20260510054551 | 60 | 0 | 0.0 | 0.0 | 0.00 | 0.00 | 0.00 | 85 | 1013.1 |
| 20260510054048 | 60 | 0 | 0.0 | 0.0 | 0.00 | 0.00 | 0.00 | 84 | 1013.1 |
| 20260510053547 | 60 | 0 | 0.0 | 0.0 | 0.00 | 0.00 | 0.00 | 84 | 1013.0 |
| 20260510053053 | 60 | 0 | 0.0 | 0.0 | 0.00 | 0.00 | 0.00 | 83 | 1013.0 |
| 20260510052548 | 60 | 0 | 0.0 | 0.0 | 0.00 | 0.00 | 0.00 | 83 | 1012.9 |
| 20260510052048 | 60 | 0 | 0.0 | 0.0 | 0.00 | 0.00 | 0.00 | 83 | 1012.9 |
| 20260510051557 | 60 | 0 | 0.0 | 0.0 | 0.00 | 0.00 | 0.00 | 83 | 1012.8 |
| 20260510051047 | 60 | 0 | 0.0 | 0.0 | 0.00 | 0.00 | 0.00 | 82 | 1012.9 |
| 20260510050547 | 60 | 0 | 0.0 | 0.0 | 0.00 | 0.00 | 0.00 | 82 | 1012.9 |
| 20260510050052 | 60 | 0 | 0.0 | 0.0 | 0.00 | 0.00 | 0.00 | 81 | 1012.7 |
| 20260510045548 | 60 | 0 | 0.0 | 0.0 | 0.00 | 0.01 | 0.00 | 81 | 1012.6 |
| 20260510045052 | 60 | 0 | 0.0 | 0.0 | 0.00 | 0.01 | 0.00 | 81 | 1012.6 |
| 20260510044553 | 60 | 0 | 0.0 | 0.0 | 0.00 | 0.01 | 0.00 | 81 | 1012.4 |
| 20260510044051 | 60 | 0 | 0.0 | 0.0 | 0.00 | 0.01 | 0.00 | 81 | 1012.3 |
| 20260510043547 | 60 | 0 | 0.0 | 0.0 | 0.00 | 0.01 | 0.00 | 81 | 1012.3 |
| 20260510043105 | 60 | 0 | 0.0 | 0.0 | 0.00 | 0.01 | 0.00 | 81 | 1012.2 |
| 20260510042549 | 60 | 0 | 0.0 | 0.0 | 0.00 | 0.01 | 0.00 | 81 | 1012.2 |
| 20260510042048 | 60 | 0 | 0.0 | 0.0 | 0.00 | 0.01 | 0.00 | 81 | 1012.3 |
| 20260510041555 | 60 | 0 | 0.0 | 0.0 | 0.00 | 0.01 | 0.00 | 80 | 1012.3 |
| 20260510041048 | 60 | 0 | 0.0 | 0.0 | 0.00 | 0.01 | 0.00 | 81 | 1012.1 |
| 20260510040550 | 60 | 0 | 0.0 | 0.0 | 0.00 | 0.01 | 0.00 | 81 | 1012.2 |
| 20260510040110 | 60 | 0 | 0.0 | 0.0 | 0.00 | 0.01 | 0.00 | 80 | 1012.2 |
| 20260510035548 | 60 | 0 | 0.0 | 0.0 | 0.00 | 0.11 | 0.00 | 80 | 1012.2 |
| 20260510035049 | 60 | 0 | 0.0 | 0.0 | 0.00 | 0.11 | 0.00 | 80 | 1012.0 |
| 20260510034604 | 60 | 0 | 0.0 | 0.0 | 0.00 | 0.11 | 0.00 | 80 | 1011.9 |
| 20260510034049 | 60 | 0 | 0.0 | 0.0 | 0.00 | 0.11 | 0.00 | 80 | 1011.8 |
| 20260510033548 | 60 | 0 | 0.0 | 0.0 | 0.00 | 0.11 | 0.00 | 79 | 1011.7 |
| 20260510033054 | 60 | 0 | 0.0 | 0.0 | 0.00 | 0.11 | 0.00 | 79 | 1011.7 |
| 20260510032549 | 60 | 0 | 0.0 | 0.0 | 0.00 | 0.11 | 0.00 | 78 | 1011.6 |
| 20260510032048 | 61 | 0 | 0.0 | 0.0 | 0.00 | 0.11 | 0.00 | 77 | 1011.5 |
| 20260510031556 | 61 | 0 | 0.0 | 0.0 | 0.00 | 0.11 | 0.00 | 77 | 1011.5 |
| 20260510031048 | 61 | 0 | 0.0 | 0.0 | 0.00 | 0.11 | 0.00 | 76 | 1011.6 |
| 20260510030547 | 61 | 0 | 0.0 | 0.0 | 0.00 | 0.11 | 0.00 | 75 | 1011.6 |
| 20260510030106 | 62 | 0 | 0.0 | 0.0 | 0.00 | 0.11 | 0.00 | 74 | 1011.4 |
| 20260510025547 | 62 | 0 | 0.0 | 0.0 | 0.00 | 0.12 | 0.00 | 73 | 1011.4 |
| 20260510025049 | 63 | 0 | 0.0 | 0.0 | 0.00 | 0.12 | 0.00 | 72 | 1011.3 |
| 20260510024559 | 63 | 0 | 0.0 | 0.0 | 0.00 | 0.12 | 0.00 | 71 | 1011.3 |
| 20260510024048 | 63 | 0 | 0.0 | 0.0 | 0.00 | 0.12 | 0.00 | 70 | 1011.2 |
| 20260510023550 | 64 | 0 | 0.0 | 0.0 | 0.00 | 0.12 | 0.00 | 70 | 1011.1 |
| 20260510023100 | 64 | 0 | 0.0 | 0.0 | 0.00 | 0.12 | 0.00 | 69 | 1010.9 |
| 20260510022549 | 65 | 0 | 0.0 | 0.0 | 0.00 | 0.12 | 0.00 | 69 | 1010.8 |
| 20260510022047 | 65 | 0 | 0.0 | 0.0 | 0.00 | 0.12 | 0.00 | 69 | 1010.7 |
| 20260510021603 | 66 | 0 | 0.0 | 0.0 | 0.00 | 0.12 | 0.00 | 67 | 1010.6 |
| 20260510021048 | 66 | 0 | 0.0 | 0.0 | 0.00 | 0.12 | 0.00 | 66 | 1010.5 |
| 20260510020547 | 67 | 0 | 0.0 | 0.0 | 0.00 | 0.12 | 0.00 | 66 | 1010.3 |
| 20260510020056 | 67 | 0 | 0.0 | 0.0 | 0.00 | 0.12 | 0.00 | 65 | 1010.3 |
| 20260510015548 | 68 | 0 | 0.0 | 0.0 | 0.00 | 0.12 | 0.00 | 64 | 1010.3 |
| 20260510015048 | 68 | 0 | 0.0 | 0.0 | 0.00 | 0.12 | 0.00 | 63 | 1010.2 |
| 20260510014618 | 69 | 0 | 0.0 | 0.0 | 0.00 | 0.12 | 0.00 | 63 | 1010.1 |
| 20260510014048 | 70 | 0 | 0.0 | 0.0 | 0.00 | 0.12 | 0.00 | 62 | 1009.9 |
| 20260510013552 | 70 | 0 | 0.0 | 0.0 | 0.00 | 0.12 | 0.00 | 60 | 1010.0 |
| 20260510013104 | 71 | 0 | 0.0 | 0.0 | 0.00 | 0.12 | 0.00 | 59 | 1009.9 |
| 20260510012545 | 71 | 0 | 0.0 | 0.0 | 0.00 | 0.12 | 0.00 | 56 | 1009.9 |
| 20260510012048 | 72 | 0 | 0.0 | 0.0 | 0.00 | 0.12 | 0.00 | 55 | 1009.8 |
| 20260510011555 | 73 | 0 | 0.0 | 0.0 | 0.00 | 0.12 | 0.00 | 54 | 1009.8 |
| 20260510011045 | 73 | 0 | 0.0 | 0.0 | 0.00 | 0.12 | 0.00 | 52 | 1009.7 |
| 20260510010547 | 74 | 0 | 0.0 | 0.0 | 0.00 | 0.12 | 0.00 | 52 | 1009.6 |
| 20260510010051 | 75 | 0 | 0.0 | 0.0 | 0.00 | 0.12 | 0.00 | 51 | 1009.7 |
| 20260510005549 | 76 | 0 | 0.0 | 0.0 | 0.00 | 0.12 | 0.00 | 52 | 1009.7 |
| 20260510005049 | 76 | 0 | 0.0 | 0.0 | 0.00 | 0.12 | 0.00 | 49 | 1009.6 |
| 20260510004552 | 77 | 0 | 0.0 | 0.0 | 0.00 | 0.12 | 0.00 | 49 | 1009.4 |
| 20260510004051 | 78 | 0 | 0.0 | 0.0 | 0.00 | 0.12 | 0.00 | 47 | 1009.4 |
| 20260510003550 | 78 | 0 | 0.0 | 0.0 | 0.00 | 0.12 | 0.00 | 47 | 1009.4 |
| 20260510003057 | 79 | 0 | 0.0 | 0.0 | 0.00 | 0.12 | 0.00 | 46 | 1009.3 |
| 20260510002551 | 80 | 0 | 0.0 | 0.0 | 0.00 | 0.12 | 0.00 | 45 | 1009.3 |
| 20260510002047 | 81 | 0 | 0.0 | 0.0 | 0.00 | 0.12 | 0.00 | 44 | 1009.4 |
| 20260510001552 | 81 | 0 | 0.0 | 0.0 | 0.00 | 0.12 | 0.00 | 43 | 1009.5 |
| 20260510001047 | 82 | 0 | 0.0 | 0.0 | 0.00 | 0.12 | 0.00 | 42 | 1009.3 |
| 20260510000548 | 82 | 0 | 0.0 | 0.0 | 0.00 | 0.12 | 0.00 | 42 | 1009.3 |
| 20260510000055 | 83 | 0 | 0.0 | 0.0 | 0.00 | 0.12 | 0.00 | 42 | 1009.5 |
| 20260509235548 | 83 | 0 | 0.0 | 0.0 | 0.00 | 0.12 | 0.00 | 40 | 1009.4 |
| 20260509235045 | 84 | 0 | 0.0 | 0.0 | 0.00 | 0.12 | 0.00 | 38 | 1009.4 |
| 20260509234555 | 84 | 0 | 0.0 | 0.0 | 0.00 | 0.12 | 0.00 | 40 | 1009.5 |
| 20260509234048 | 84 | 0 | 0.0 | 0.0 | 0.00 | 0.12 | 0.00 | 41 | 1009.5 |
| 20260509233553 | 85 | 0 | 0.0 | 0.0 | 0.00 | 0.12 | 0.00 | 37 | 1009.4 |
| 20260509233055 | 85 | 0 | 0.0 | 1.7 | 0.00 | 0.12 | 0.00 | 38 | 1009.5 |
| 20260509232548 | 85 | 0 | 0.0 | 1.7 | 0.00 | 0.12 | 0.00 | 38 | 1009.3 |
| 20260509232048 | 85 | 0 | 0.0 | 1.7 | 0.00 | 0.12 | 0.00 | 26 | 1009.4 |
| 20260509231558 | 86 | 69 | 0.0 | 0.9 | 0.00 | 0.12 | 0.00 | 31 | 1009.4 |
| 20260509231049 | 86 | 80 | 0.0 | 2.6 | 0.00 | 0.12 | 0.00 | 37 | 1009.3 |
| 20260509230552 | 86 | 0 | 0.0 | 2.6 | 0.00 | 0.12 | 0.00 | 30 | 1009.3 |
| 20260509230058 | 86 | 228 | 0.0 | 2.6 | 0.00 | 0.12 | 0.00 | 30 | 1009.3 |
| 20260509225550 | 86 | 138 | 0.0 | 2.6 | 0.00 | 0.12 | 0.00 | 29 | 1009.3 |
| 20260509225050 | 86 | 0 | 0.0 | 3.5 | 0.00 | 0.12 | 0.00 | 32 | 1009.3 |
| 20260509224600 | 86 | 0 | 0.9 | 3.5 | 0.00 | 0.12 | 0.00 | 28 | 1009.4 |
| 20260509224047 | 86 | 222 | 0.0 | 2.6 | 0.00 | 0.12 | 0.00 | 28 | 1009.3 |
| 20260509223546 | 86 | 0 | 0.0 | 1.7 | 0.00 | 0.12 | 0.00 | 32 | 1009.3 |
| 20260509223106 | 86 | 211 | 0.0 | 2.6 | 0.00 | 0.12 | 0.00 | 33 | 1009.4 |
| 20260509222548 | 86 | 151 | 0.9 | 2.6 | 0.00 | 0.12 | 0.00 | 28 | 1009.4 |
| 20260509222045 | 87 | 0 | 0.0 | 2.6 | 0.00 | 0.12 | 0.00 | 31 | 1009.3 |
| 20260509221608 | 87 | 0 | 0.0 | 3.5 | 0.00 | 0.12 | 0.00 | 34 | 1009.3 |
| 20260509221046 | 87 | 0 | 0.9 | 3.5 | 0.00 | 0.12 | 0.00 | 28 | 1009.3 |
| 20260509220546 | 87 | 200 | 1.7 | 3.5 | 0.00 | 0.12 | 0.00 | 29 | 1009.2 |
| 20260509220057 | 87 | 151 | 0.9 | 2.6 | 0.00 | 0.12 | 0.00 | 29 | 1009.3 |
| 20260509215545 | 87 | 181 | 0.0 | 2.6 | 0.00 | 0.12 | 0.00 | 32 | 1009.2 |
| 20260509215049 | 87 | 0 | 0.0 | 4.3 | 0.00 | 0.12 | 0.00 | 37 | 1009.2 |
| 20260509214558 | 87 | 33 | 0.9 | 4.3 | 0.00 | 0.12 | 0.00 | 29 | 1009.2 |
| 20260509214048 | 87 | 200 | 0.9 | 4.3 | 0.00 | 0.12 | 0.00 | 31 | 1009.3 |
| 20260509213546 | 87 | 248 | 0.9 | 3.5 | 0.00 | 0.12 | 0.00 | 29 | 1009.3 |
| 20260509213053 | 88 | 186 | 0.9 | 3.5 | 0.00 | 0.12 | 0.00 | 32 | 1009.2 |
| 20260509212547 | 87 | 202 | 0.0 | 3.5 | 0.00 | 0.12 | 0.00 | 35 | 1009.4 |
| 20260509212050 | 87 | 249 | 0.9 | 3.5 | 0.00 | 0.12 | 0.00 | 29 | 1009.4 |
| 20260509211559 | 87 | 200 | 0.9 | 3.5 | 0.00 | 0.12 | 0.00 | 33 | 1009.5 |
| 20260509211047 | 87 | 0 | 1.7 | 3.5 | 0.00 | 0.12 | 0.00 | 34 | 1009.6 |
| 20260509210547 | 87 | 160 | 0.0 | 4.3 | 0.00 | 0.12 | 0.00 | 33 | 1009.6 |
| 20260509210118 | 87 | 188 | 0.9 | 4.3 | 0.00 | 0.12 | 0.00 | 32 | 1009.7 |
| 20260509205546 | 86 | 202 | 0.9 | 5.2 | 0.00 | 0.12 | 0.00 | 34 | 1009.8 |
| 20260509205048 | 86 | 223 | 0.9 | 5.2 | 0.00 | 0.12 | 0.00 | 32 | 1009.8 |
| 20260509204558 | 86 | 205 | 1.7 | 2.6 | 0.00 | 0.12 | 0.00 | 35 | 1009.8 |
| 20260509204045 | 85 | 0 | 0.0 | 2.6 | 0.00 | 0.12 | 0.00 | 38 | 1009.9 |
| 20260509203549 | 85 | 0 | 0.0 | 2.6 | 0.00 | 0.12 | 0.00 | 35 | 1009.9 |
| 20260509203049 | 84 | 162 | 0.0 | 3.5 | 0.00 | 0.12 | 0.00 | 36 | 1009.9 |
| 20260509202548 | 84 | 33 | 0.0 | 3.5 | 0.00 | 0.12 | 0.00 | 38 | 1009.9 |
| 20260509202049 | 84 | 66 | 0.9 | 3.5 | 0.00 | 0.12 | 0.00 | 35 | 1010.1 |
| 20260509201611 | 84 | 107 | 0.9 | 5.2 | 0.00 | 0.12 | 0.00 | 37 | 1010.1 |
| 20260509201048 | 85 | 65 | 1.7 | 5.2 | 0.00 | 0.12 | 0.00 | 41 | 1010.1 |
| 20260509200548 | 84 | 219 | 1.7 | 4.3 | 0.00 | 0.12 | 0.00 | 38 | 1010.1 |
| 20260509200103 | 85 | 150 | 0.9 | 5.2 | 0.00 | 0.12 | 0.00 | 41 | 1010.1 |
| 20260509195548 | 85 | 155 | 0.9 | 5.2 | 0.00 | 0.12 | 0.00 | 39 | 1010.2 |
| 20260509195048 | 85 | 192 | 0.9 | 4.3 | 0.00 | 0.12 | 0.00 | 44 | 1010.2 |
| 20260509194558 | 84 | 222 | 1.7 | 4.3 | 0.00 | 0.12 | 0.00 | 39 | 1010.3 |
| 20260509194046 | 84 | 89 | 0.9 | 4.3 | 0.00 | 0.12 | 0.00 | 44 | 1010.4 |
| 20260509193550 | 84 | 60 | 0.9 | 5.2 | 0.00 | 0.12 | 0.00 | 42 | 1010.4 |
| 20260509193054 | 84 | 0 | 0.9 | 5.2 | 0.00 | 0.12 | 0.00 | 41 | 1010.3 |
| 20260509192545 | 84 | 208 | 0.9 | 5.2 | 0.00 | 0.12 | 0.00 | 40 | 1010.4 |
| 20260509192046 | 84 | 0 | 0.0 | 5.2 | 0.00 | 0.12 | 0.00 | 45 | 1010.4 |
| 20260509191551 | 84 | 20 | 0.9 | 5.2 | 0.00 | 0.12 | 0.00 | 40 | 1010.5 |
| 20260509191046 | 84 | 127 | 0.9 | 5.2 | 0.00 | 0.12 | 0.00 | 46 | 1010.5 |
| 20260509190547 | 84 | 94 | 1.7 | 5.2 | 0.00 | 0.12 | 0.00 | 43 | 1010.7 |
| 20260509190106 | 84 | 197 | 0.9 | 4.3 | 0.00 | 0.12 | 0.00 | 43 | 1010.6 |
| 20260509185548 | 84 | 134 | 0.9 | 4.3 | 0.00 | 0.12 | 0.00 | 43 | 1010.7 |
| 20260509185048 | 84 | 155 | 1.7 | 4.3 | 0.00 | 0.12 | 0.00 | 46 | 1010.6 |
| 20260509184554 | 84 | 0 | 0.9 | 4.3 | 0.00 | 0.12 | 0.00 | 42 | 1010.8 |
| 20260509184047 | 84 | 0 | 1.7 | 3.5 | 0.00 | 0.12 | 0.00 | 42 | 1010.8 |
| 20260509183548 | 83 | 206 | 0.9 | 3.5 | 0.00 | 0.12 | 0.00 | 44 | 1010.9 |
| 20260509183100 | 83 | 0 | 0.9 | 3.5 | 0.00 | 0.12 | 0.00 | 43 | 1010.9 |
| 20260509182546 | 83 | 0 | 0.9 | 5.2 | 0.00 | 0.12 | 0.00 | 48 | 1010.9 |
| 20260509182045 | 83 | 117 | 1.7 | 5.2 | 0.00 | 0.12 | 0.00 | 42 | 1010.9 |
| 20260509181559 | 83 | 159 | 0.9 | 4.3 | 0.00 | 0.12 | 0.00 | 42 | 1011.0 |
| 20260509181048 | 83 | 78 | 1.7 | 5.2 | 0.00 | 0.12 | 0.00 | 45 | 1011.0 |
| 20260509180545 | 83 | 0 | 1.7 | 5.2 | 0.00 | 0.12 | 0.00 | 53 | 1011.0 |
| 20260509180059 | 83 | 55 | 0.9 | 4.3 | 0.00 | 0.12 | 0.00 | 52 | 1010.9 |
| 20260509175548 | 83 | 186 | 0.9 | 4.3 | 0.00 | 0.12 | 0.00 | 53 | 1011.1 |
| 20260509175052 | 83 | 165 | 1.7 | 5.2 | 0.00 | 0.12 | 0.00 | 52 | 1011.1 |
| 20260509174553 | 83 | 203 | 0.9 | 5.2 | 0.00 | 0.12 | 0.00 | 49 | 1011.2 |
| 20260509174049 | 83 | 221 | 0.0 | 4.3 | 0.00 | 0.12 | 0.00 | 55 | 1011.1 |
| 20260509173548 | 82 | 0 | 0.9 | 4.3 | 0.00 | 0.12 | 0.00 | 53 | 1011.2 |
| 20260509173054 | 81 | 182 | 0.0 | 3.5 | 0.00 | 0.12 | 0.00 | 56 | 1011.1 |
| 20260509172548 | 81 | 106 | 0.9 | 3.5 | 0.00 | 0.12 | 0.00 | 59 | 1011.1 |
| 20260509172049 | 81 | 120 | 0.9 | 3.5 | 0.00 | 0.12 | 0.00 | 52 | 1011.0 |
| 20260509171557 | 81 | 174 | 1.7 | 3.5 | 0.00 | 0.12 | 0.00 | 56 | 1011.1 |
| 20260509171047 | 81 | 171 | 0.0 | 3.5 | 0.00 | 0.12 | 0.00 | 58 | 1011.1 |
| 20260509170545 | 80 | 0 | 0.0 | 3.5 | 0.00 | 0.12 | 0.00 | 58 | 1011.1 |
| 20260509170059 | 80 | 281 | 0.9 | 3.5 | 0.00 | 0.12 | 0.00 | 59 | 1011.1 |
| 20260509165545 | 80 | 205 | 0.0 | 2.6 | 0.00 | 0.12 | 0.00 | 64 | 1011.1 |
| 20260509165050 | 79 | 0 | 0.0 | 2.6 | 0.00 | 0.12 | 0.00 | 66 | 1011.2 |
| 20260509164557 | 79 | 228 | 0.9 | 2.6 | 0.00 | 0.12 | 0.00 | 67 | 1011.3 |
| 20260509164048 | 79 | 359 | 0.0 | 2.6 | 0.00 | 0.12 | 0.00 | 68 | 1011.2 |
| 20260509163548 | 78 | 359 | 0.0 | 2.6 | 0.00 | 0.12 | 0.00 | 66 | 1011.4 |
| 20260509163055 | 78 | 182 | 0.0 | 5.2 | 0.00 | 0.12 | 0.00 | 73 | 1011.4 |
| 20260509162548 | 78 | 1 | 0.9 | 5.2 | 0.00 | 0.12 | 0.00 | 70 | 1011.4 |
| 20260509162047 | 78 | 0 | 0.9 | 3.5 | 0.00 | 0.12 | 0.00 | 73 | 1011.4 |
| 20260509161559 | 77 | 0 | 0.0 | 2.6 | 0.00 | 0.12 | 0.00 | 75 | 1011.4 |
| 20260509161048 | 76 | 240 | 0.0 | 1.7 | 0.00 | 0.12 | 0.00 | 78 | 1011.4 |
| 20260509160550 | 76 | 0 | 0.0 | 2.6 | 0.00 | 0.12 | 0.00 | 78 | 1011.4 |
| 20260509160055 | 75 | 0 | 0.0 | 2.6 | 0.00 | 0.12 | 0.00 | 79 | 1011.5 |
| 20260509155550 | 74 | 0 | 0.0 | 2.6 | 0.00 | 0.12 | 0.00 | 80 | 1011.5 |
| 20260509155048 | 73 | 0 | 0.0 | 1.7 | 0.00 | 0.12 | 0.00 | 81 | 1011.6 |
| 20260509154559 | 73 | 0 | 0.0 | 2.6 | 0.00 | 0.12 | 0.00 | 82 | 1011.6 |
| 20260509154048 | 72 | 1 | 0.9 | 2.6 | 0.00 | 0.12 | 0.00 | 81 | 1011.6 |
| 20260509153550 | 71 | 75 | 0.0 | 2.6 | 0.00 | 0.12 | 0.00 | 82 | 1011.6 |
| 20260509153057 | 71 | 0 | 0.9 | 2.6 | 0.00 | 0.12 | 0.00 | 82 | 1011.5 |
| 20260509152548 | 70 | 0 | 0.0 | 1.7 | 0.00 | 0.12 | 0.00 | 86 | 1011.6 |
| 20260509152050 | 70 | 0 | 0.0 | 1.7 | 0.00 | 0.12 | 0.00 | 85 | 1011.5 |
| 20260509151552 | 69 | 0 | 0.0 | 2.6 | 0.00 | 0.12 | 0.00 | 86 | 1011.5 |
| 20260509151048 | 69 | 211 | 0.9 | 2.6 | 0.00 | 0.12 | 0.00 | 88 | 1011.6 |
| 20260509150548 | 68 | 0 | 0.9 | 1.7 | 0.00 | 0.12 | 0.00 | 90 | 1011.6 |
| 20260509150053 | 67 | 0 | 0.0 | 2.6 | 0.00 | 0.12 | 0.00 | 91 | 1011.8 |
| 20260509145550 | 66 | 0 | 0.9 | 2.6 | 0.00 | 0.12 | 0.00 | 91 | 1011.8 |
| 20260509145049 | 66 | 145 | 0.0 | 3.5 | 0.00 | 0.12 | 0.00 | 93 | 1011.8 |
| 20260509144550 | 65 | 153 | 0.0 | 3.5 | 0.00 | 0.12 | 0.00 | 93 | 1011.8 |
| 20260509144048 | 65 | 0 | 0.9 | 3.5 | 0.00 | 0.12 | 0.00 | 94 | 1011.9 |
| 20260509143549 | 64 | 161 | 0.0 | 2.6 | 0.00 | 0.12 | 0.00 | 94 | 1011.9 |
| 20260509143056 | 63 | 1 | 0.9 | 1.7 | 0.00 | 0.12 | 0.00 | 94 | 1011.9 |
| 20260509142549 | 63 | 34 | 0.0 | 1.7 | 0.00 | 0.12 | 0.00 | 94 | 1011.9 |
| 20260509142053 | 63 | 0 | 0.0 | 1.7 | 0.00 | 0.12 | 0.00 | 94 | 1011.9 |
| 20260509141550 | 63 | 0 | 0.0 | 1.7 | 0.00 | 0.12 | 0.00 | 94 | 1011.7 |
| 20260509141053 | 62 | 0 | 0.0 | 2.6 | 0.00 | 0.12 | 0.00 | 94 | 1011.9 |
| 20260509140547 | 62 | 137 | 0.0 | 2.6 | 0.00 | 0.12 | 0.00 | 95 | 1011.9 |
| 20260509135549 | 61 | 0 | 0.0 | 0.9 | 0.00 | 0.12 | 0.00 | 95 | 1011.8 |
| 20260509135051 | 60 | 0 | 0.0 | 0.9 | 0.00 | 0.12 | 0.00 | 95 | 1011.8 |
| 20260509134624 | 60 | 0 | 0.0 | 0.9 | 0.00 | 0.12 | 0.00 | 94 | 1011.8 |
| 20260509134052 | 59 | 0 | 0.0 | 0.9 | 0.00 | 0.12 | 0.00 | 94 | 1011.8 |
| 20260509133549 | 59 | 0 | 0.0 | 0.9 | 0.00 | 0.12 | 0.00 | 94 | 1011.6 |
| 20260509133056 | 59 | 0 | 0.0 | 0.9 | 0.00 | 0.12 | 0.00 | 94 | 1011.5 |
| 20260509132548 | 59 | 0 | 0.0 | 0.9 | 0.00 | 0.12 | 0.00 | 94 | 1011.6 |
| 20260509132049 | 58 | 0 | 0.0 | 0.9 | 0.00 | 0.12 | 0.00 | 94 | 1011.4 |
| 20260509131553 | 58 | 0 | 0.0 | 0.9 | 0.00 | 0.12 | 0.00 | 94 | 1011.5 |
| 20260509131050 | 58 | 0 | 0.0 | 0.9 | 0.00 | 0.12 | 0.00 | 94 | 1011.4 |
| 20260509130549 | 58 | 0 | 0.0 | 0.0 | 0.00 | 0.12 | 0.00 | 94 | 1011.4 |
| 20260509130051 | 58 | 0 | 0.0 | 0.0 | 0.00 | 0.12 | 0.00 | 94 | 1011.3 |
| 20260509125547 | 57 | 0 | 0.0 | 0.0 | 0.00 | 0.12 | 0.00 | 94 | 1011.3 |
| 20260509125049 | 57 | 0 | 0.0 | 0.9 | 0.00 | 0.12 | 0.00 | 93 | 1011.2 |
| 20260509124554 | 57 | 0 | 0.0 | 0.9 | 0.00 | 0.12 | 0.00 | 93 | 1011.2 |
| 20260509124048 | 57 | 0 | 0.0 | 1.7 | 0.00 | 0.12 | 0.00 | 94 | 1011.1 |
| 20260509123549 | 57 | 0 | 0.0 | 1.7 | 0.00 | 0.12 | 0.00 | 93 | 1011.1 |
| 20260509123055 | 57 | 0 | 0.0 | 1.7 | 0.00 | 0.12 | 0.00 | 93 | 1011.2 |
| 20260509122549 | 57 | 0 | 0.0 | 0.9 | 0.00 | 0.12 | 0.00 | 93 | 1011.0 |
| 20260509122048 | 57 | 0 | 0.0 | 0.9 | 0.00 | 0.12 | 0.00 | 93 | 1010.9 |
| 20260509121554 | 57 | 0 | 0.0 | 0.9 | 0.00 | 0.12 | 0.00 | 93 | 1010.8 |
| 20260509121049 | 57 | 0 | 0.0 | 0.9 | 0.00 | 0.12 | 0.00 | 93 | 1010.8 |
| 20260509120549 | 57 | 0 | 0.0 | 0.0 | 0.00 | 0.12 | 0.00 | 93 | 1010.7 |
| 20260509120053 | 56 | 0 | 0.0 | 0.0 | 0.00 | 0.12 | 0.00 | 93 | 1010.6 |
| 20260509115548 | 56 | 0 | 0.0 | 0.0 | 0.00 | 0.12 | 0.00 | 93 | 1010.6 |
| 20260509115049 | 56 | 0 | 0.0 | 0.0 | 0.00 | 0.12 | 0.00 | 93 | 1010.6 |
| 20260509114558 | 56 | 0 | 0.0 | 0.0 | 0.00 | 0.12 | 0.00 | 93 | 1010.6 |
| 20260509114048 | 56 | 0 | 0.0 | 0.0 | 0.00 | 0.12 | 0.00 | 93 | 1010.6 |
| 20260509113547 | 56 | 0 | 0.0 | 0.0 | 0.00 | 0.12 | 0.00 | 93 | 1010.5 |
| 20260509113058 | 56 | 0 | 0.0 | 0.0 | 0.00 | 0.12 | 0.00 | 93 | 1010.4 |
| 20260509112548 | 56 | 0 | 0.0 | 0.0 | 0.00 | 0.12 | 0.00 | 93 | 1010.4 |
| 20260509112048 | 55 | 0 | 0.0 | 0.0 | 0.00 | 0.12 | 0.00 | 93 | 1010.4 |
| 20260509111553 | 55 | 0 | 0.0 | 0.0 | 0.00 | 0.12 | 0.00 | 93 | 1010.4 |
| 20260509111048 | 55 | 0 | 0.0 | 0.0 | 0.00 | 0.12 | 0.00 | 92 | 1010.4 |
| 20260509110553 | 55 | 0 | 0.0 | 0.0 | 0.00 | 0.12 | 0.00 | 92 | 1010.4 |
| 20260509110052 | 55 | 0 | 0.0 | 0.0 | 0.00 | 0.12 | 0.00 | 92 | 1010.2 |
| 20260509105548 | 55 | 0 | 0.0 | 0.0 | 0.00 | 0.12 | 0.00 | 92 | 1010.1 |
| 20260509105048 | 55 | 0 | 0.0 | 0.0 | 0.00 | 0.12 | 0.00 | 92 | 1010.0 |
| 20260509104555 | 55 | 0 | 0.0 | 0.0 | 0.00 | 0.12 | 0.00 | 92 | 1010.1 |
| 20260509104048 | 55 | 0 | 0.0 | 0.0 | 0.00 | 0.12 | 0.00 | 92 | 1009.9 |
| 20260509103547 | 55 | 0 | 0.0 | 0.0 | 0.00 | 0.12 | 0.00 | 92 | 1009.9 |
| 20260509103057 | 55 | 0 | 0.0 | 0.0 | 0.00 | 0.12 | 0.00 | 92 | 1009.9 |
| 20260509102550 | 55 | 0 | 0.0 | 0.0 | 0.00 | 0.12 | 0.00 | 92 | 1009.8 |
| 20260509102049 | 55 | 0 | 0.0 | 0.0 | 0.00 | 0.12 | 0.00 | 92 | 1009.9 |
| 20260509101554 | 55 | 0 | 0.0 | 0.0 | 0.00 | 0.12 | 0.00 | 92 | 1009.9 |
| 20260509101049 | 55 | 0 | 0.0 | 0.0 | 0.00 | 0.12 | 0.00 | 92 | 1009.9 |
| 20260509100548 | 55 | 0 | 0.0 | 0.0 | 0.00 | 0.12 | 0.00 | 92 | 1009.9 |
| 20260509100100 | 55 | 0 | 0.0 | 0.0 | 0.00 | 0.12 | 0.00 | 92 | 1009.8 |
| 20260509095545 | 55 | 0 | 0.0 | 0.0 | 0.00 | 0.12 | 0.00 | 91 | 1009.7 |
| 20260509095044 | 55 | 0 | 0.0 | 0.0 | 0.00 | 0.12 | 0.00 | 91 | 1009.9 |
| 20260509094551 | 55 | 0 | 0.0 | 0.0 | 0.00 | 0.12 | 0.00 | 92 | 1009.8 |
| 20260509094045 | 55 | 0 | 0.0 | 0.0 | 0.00 | 0.12 | 0.00 | 92 | 1009.7 |
| 20260509093548 | 55 | 0 | 0.0 | 0.0 | 0.00 | 0.12 | 0.00 | 91 | 1009.8 |
| 20260509093058 | 55 | 0 | 0.0 | 0.0 | 0.00 | 0.12 | 0.00 | 91 | 1009.8 |
| 20260509092546 | 56 | 0 | 0.0 | 0.0 | 0.00 | 0.12 | 0.00 | 91 | 1009.9 |
| 20260509092048 | 56 | 0 | 0.0 | 0.0 | 0.00 | 0.12 | 0.00 | 91 | 1010.0 |
| 20260509091554 | 56 | 0 | 0.0 | 0.0 | 0.00 | 0.12 | 0.00 | 92 | 1009.9 |
| 20260509091048 | 56 | 0 | 0.0 | 0.0 | 0.00 | 0.12 | 0.00 | 91 | 1010.0 |
| 20260509090545 | 56 | 0 | 0.0 | 0.0 | 0.00 | 0.12 | 0.00 | 91 | 1010.0 |
| 20260509090053 | 56 | 0 | 0.0 | 0.0 | 0.00 | 0.12 | 0.00 | 91 | 1009.9 |
| 20260509085545 | 56 | 0 | 0.0 | 0.0 | 0.00 | 0.12 | 0.00 | 91 | 1010.1 |
| 20260509085045 | 56 | 0 | 0.0 | 0.0 | 0.00 | 0.12 | 0.00 | 91 | 1010.1 |
| 20260509084550 | 56 | 0 | 0.0 | 0.0 | 0.00 | 0.12 | 0.00 | 91 | 1010.2 |
| 20260509084045 | 56 | 0 | 0.0 | 0.0 | 0.00 | 0.12 | 0.00 | 91 | 1010.2 |
| 20260509083545 | 56 | 0 | 0.0 | 0.0 | 0.00 | 0.12 | 0.00 | 91 | 1010.2 |
| 20260509083055 | 57 | 0 | 0.0 | 0.0 | 0.00 | 0.12 | 0.00 | 91 | 1010.2 |
| 20260509082547 | 57 | 0 | 0.0 | 0.0 | 0.00 | 0.12 | 0.00 | 91 | 1010.2 |
| 20260509082047 | 57 | 0 | 0.0 | 0.0 | 0.00 | 0.12 | 0.00 | 91 | 1010.3 |
| 20260509081552 | 57 | 0 | 0.0 | 0.0 | 0.00 | 0.12 | 0.00 | 91 | 1010.2 |
| 20260509081048 | 57 | 0 | 0.0 | 0.0 | 0.00 | 0.12 | 0.00 | 91 | 1010.3 |
| 20260509080547 | 57 | 0 | 0.0 | 0.0 | 0.00 | 0.12 | 0.00 | 91 | 1010.4 |
| 20260509080051 | 57 | 0 | 0.0 | 0.0 | 0.00 | 0.12 | 0.00 | 91 | 1010.6 |
| 20260509075548 | 57 | 0 | 0.0 | 0.0 | 0.00 | 0.12 | 0.00 | 91 | 1010.6 |
| 20260509075050 | 57 | 0 | 0.0 | 0.0 | 0.00 | 0.12 | 0.00 | 91 | 1010.6 |
| 20260509074558 | 57 | 0 | 0.0 | 0.0 | 0.00 | 0.12 | 0.00 | 91 | 1010.7 |
| 20260509074047 | 57 | 0 | 0.0 | 0.0 | 0.00 | 0.12 | 0.00 | 91 | 1010.8 |
| 20260509073546 | 57 | 0 | 0.0 | 0.0 | 0.00 | 0.12 | 0.00 | 91 | 1010.7 |
| 20260509073050 | 58 | 0 | 0.0 | 0.0 | 0.00 | 0.12 | 0.00 | 91 | 1010.9 |
| 20260509072551 | 58 | 0 | 0.0 | 0.0 | 0.00 | 0.12 | 0.00 | 91 | 1010.8 |
| 20260509072044 | 58 | 0 | 0.0 | 0.0 | 0.00 | 0.12 | 0.00 | 91 | 1010.8 |
| 20260509071559 | 58 | 0 | 0.0 | 0.9 | 0.00 | 0.12 | 0.00 | 91 | 1010.6 |
| 20260509071047 | 58 | 0 | 0.0 | 0.9 | 0.00 | 0.12 | 0.00 | 90 | 1010.7 |
| 20260509070548 | 58 | 0 | 0.0 | 0.0 | 0.00 | 0.12 | 0.00 | 90 | 1010.6 |
| 20260509070051 | 58 | 0 | 0.0 | 0.0 | 0.00 | 0.12 | 0.00 | 90 | 1010.4 |
| 20260509065548 | 58 | 0 | 0.0 | 0.0 | 0.00 | 0.12 | 0.00 | 90 | 1010.3 |
| 20260509065048 | 58 | 0 | 0.0 | 0.0 | 0.00 | 0.12 | 0.00 | 90 | 1010.3 |
| 20260509064559 | 58 | 0 | 0.0 | 0.0 | 0.00 | 0.12 | 0.00 | 90 | 1010.2 |
| 20260509064045 | 58 | 0 | 0.0 | 0.0 | 0.00 | 0.12 | 0.00 | 90 | 1010.4 |
| 20260509063545 | 59 | 0 | 0.0 | 0.0 | 0.00 | 0.12 | 0.00 | 90 | 1010.4 |
| 20260509063053 | 59 | 0 | 0.0 | 0.0 | 0.00 | 0.12 | 0.00 | 90 | 1010.4 |
| 20260509062548 | 59 | 0 | 0.0 | 0.0 | 0.00 | 0.12 | 0.00 | 90 | 1010.4 |
| 20260509062045 | 59 | 0 | 0.0 | 0.0 | 0.00 | 0.12 | 0.00 | 90 | 1010.4 |
| 20260509061556 | 59 | 0 | 0.0 | 0.0 | 0.00 | 0.12 | 0.00 | 90 | 1010.3 |